Regional Weather Roundup
Issued by NWS Northern Indiana

Home | Current Version | Previous Version | Text Only | Print | Product List | Glossary On
Versions: 1 2 3 4 5 6 7 8 9 10 11 12 13 14 15 16 17 18 19 20 21 22 23 24 25 26 27 28 29 30 31 32 33 34 35 36 37 38 39 40 41 42 43 44 45 46 47 48 49 50
000
ASUS43 KIWX 140410
RWRIWX

KIWX WEATHER ROUNDUP
NATIONAL WEATHER SERVICE NORTHERN INDIANA
1200 AM EDT MON JUL 14 2014

NOTE: "FAIR" INDICATES FEW OR NO CLOUDS BELOW 12,000 FEET WITH NO
SIGNIFICANT WEATHER AND/OR OBSTRUCTIONS TO VISIBILITY.

* THESE STATIONS ARE NOT UNDER NWS QUALITY CONTROL. THEY ALSO MAY NOT
  REPORT WEATHER SUCH AS PRECIPITATION OR FOG.

INZ001>027-140500-
NORTHERN INDIANA

CITY           SKY/WX    TMP DP  RH WIND       PRES   REMARKS
GARY*          PTCLDY    76  65  68 W7        29.90S
VALPARAISO     CLOUDY    74  66  76 SW9       29.91S
MICHIGAN CITY* CLOUDY    73  63  68 SW6       29.90S
LAPORTE*       CLOUDY    73  65  77 SW8       29.91S
KNOX*          CLOUDY    72  67  84 SW6       29.90S
SOUTH BEND     LGT RAIN  74  65  73 SW9       29.90F
GOSHEN         CLEAR     73  66  78 SW10      29.90F
MONTICELLO*    PTCLDY    68  66  92 W3        29.92F
LOGANSPORT*    PTCLDY    66  63  88 W6        29.93F
ROCHESTER*     PTCLDY    73  66  78 SW3       29.92F
WARSAW*        PTCLDY    72  66  83 SW3       29.92S
ANGOLA*        PTCLDY    64  55  72 CALM      29.91F
FORT WAYNE     PTCLDY    68  65  90 W3        29.92F
HUNTINGTON*    CLEAR     68  66  95 CALM      29.92S
PERU/GRISSOM   PTCLDY    68  68 100 SW5       29.92F
MARION*        PTCLDY    65  64  96 CALM      29.93F

$$
INZ028>050-140500-
CENTRAL INDIANA

CITY           SKY/WX    TMP DP  RH WIND       PRES   REMARKS
LAFAYETTE      PTCLDY    68  67  96 CALM      29.92F FOG
KOKOMO*        PTCLDY    70  64  83 W5        29.92F
MUNCIE*        CLEAR     72  67  84 S3        29.93F
INDIANAPOLIS   MOCLDY    74  69  85 CALM      29.93F

$$
MIZ043>046-050>051-056>058-064>065-071>073-077>080-140500-
SOUTHWEST LOWER MICHIGAN

CITY           SKY/WX    TMP DP  RH WIND       PRES   REMARKS
BATTLE CREEK   CLOUDY    70  63  78 SW5       29.89F
BENTON HARBOR  CLOUDY    68  66  93 S7        29.87F
COLDWATER*     CLOUDY    69  64  85 CALM      29.90F
HILLSDALE*     CLEAR     63  63  99 CALM      29.92F
HOLLAND        PTCLDY    68  64  87 CALM      29.89F
GRAND RAPIDS   PTCLDY    69  63  81 S3        29.88F
KALAMAZOO      LGT RAIN  70  63  78 S10       29.90F
STURGIS*       MOCLDY    70  63  78 S6        29.89F
THREE RIVERS*  MOCLDY    70  65  82 SW3       29.90S

$$
OHZ001>008-015>018-024>025-140500-
NORTHWEST OHIO

CITY           SKY/WX    TMP DP  RH WIND       PRES   REMARKS
WAUSEON*       FAIR      66  63  88 CALM      29.91F
DEFIANCE       CLEAR     68  63  84 CALM      29.91F
FINDLAY        CLEAR     70  64  81 CALM      29.91S
TOLEDO EXPRESS CLEAR     66  63  90 CALM      29.90F
TOLEDO METCALF CLEAR     71  62  73 W3        29.90F
LIMA           CLEAR     72  67  84 S6        29.92F

$$
&&


USA.gov is the U.S. government's official web portal to all federal, state and local government web resources and services.